OSCAR 25 (19419 NORAD) Tracking and Keplerian Element Data

This shows tracking and keplerian element data for the satellite.

Feedback or suggestion? Click here.




ElementValue
Catalog19419
NameOSCAR 25
Epoch Orbit78456
Epoch Day34.925104
Epoch Year2025
RAAN19.263
Inclination90.0246
Eccentricity0.0097855
Argument of Perigee56.5776
Mean Anonmoly6.4941
Mean Motion13.42547895
Decay Rate1.67E-06
L11 19419U 88074A 25034.92510400 .00000167 00000+0 27100-3 0 9992
L22 19419 90.0246 19.2630 0097855 56.5776 6.4941 13.42547895784560



Live tracking and technical data element details for OSCAR 25 (NORAD 19419). OSCAR 25 can be tracked NOW for your location showing map with azimuth and elevation plus other details from your city location.







IsCatalogInMostPopularTable: catalog: 19419, numindb: 304
Update: records affected: 1



GetName: 19419 OSCAR 25

Hit Count: updated at: Thu, 22 May 2025 03:44:05 GMT